Munising, MI

5:51 AM EDT on September 21, 2017 (GMT -0400)
Munising

Weather History for KP53 - April, 2013

Change the Weather History Date:

Wednesday, April 24, 2013

  Actual Average (KISQ) Record (KISQ)
Temperature  
Mean Temperature 34 °F -  
Max Temperature 39 °F 50 °F 75 °F (1990)
Min Temperature 28 °F 33 °F 15 °F (1956)
Degree Days  
Heating Degree Days 32    
Moisture  
Dew Point 26 °F    
Average Humidity 70    
Maximum Humidity 89    
Minimum Humidity 49    
Precipitation  
Precipitation 0.00 in - - ()
Sea Level Pressure  
Sea Level Pressure 29.94 in    
Wind  
Wind Speed 8 mph (NNE)    
Max Wind Speed 13 mph    
Max Gust Speed -    
Averages and records for this station are not official NWS values.
T = Trace of Precipitation, MM = Missing Value Source: NWS Daily Summary

Daily Weather History Graph

Daily Weather History Graph

Search for Another Location

Airport or City:

Trip Planner

Search our weather history database for the weather conditions in past years. The results will help you decide how hot, cold, wet, or windy it might be!

Date:

Astronomy

Apr. 24, 2013 Rise Set
Actual Time 6:43 AM EDT 8:46 PM EDT
Civil Twilight 6:10 AM EDT 9:19 PM EDT
Nautical Twilight 5:30 AM EDT 9:59 PM EDT
Astronomical Twilight 4:46 AM EDT 10:44 PM EDT
Moon 7:47 PM EDT (4/24) 5:51 AM EDT (4/24)
Length of Visible Light 15h 08m
Length of Day
14h 03m
Waxing Gibbous, 98% of the Moon is Illuminated
Apr 24
Waxing Gibbous
Apr 25
Full
May 2
Last Quarter
May 9
New
May 18
First Quarter

Hourly Weather History & Observations

Time (EDT) Temp. Windchill Dew Point Humidity Pressure Visibility Wind Dir Wind Speed Gust Speed Precip Events Conditions
12:56 AM 35.1 °F 26.4 °F 27.0 °F 72% 29.97 in - NNW 12.7 mph - N/A   Unknown
1:56 AM 34.0 °F 26.0 °F 28.0 °F 79% 29.97 in - NNW 10.4 mph - N/A   Unknown
2:56 AM 33.1 °F 25.5 °F 27.0 °F 78% 29.96 in - NNW 9.2 mph - N/A   Unknown
3:56 AM 33.1 °F 23.9 °F 27.0 °F 78% 29.95 in - NNW 12.7 mph - N/A   Unknown
4:56 AM 33.1 °F 25.5 °F 27.0 °F 78% 29.95 in - NNW 9.2 mph - N/A   Unknown
5:56 AM 32.0 °F - 26.1 °F 79% 29.96 in - Calm Calm - N/A   Unknown
6:56 AM 28.9 °F 23.9 °F 25.0 °F 85% 29.96 in - South 4.6 mph - N/A   Unknown
7:56 AM 28.9 °F 23.9 °F 26.1 °F 89% 29.96 in - South 4.6 mph - N/A   Unknown
8:56 AM 32.0 °F - 27.0 °F 82% 29.97 in - Calm Calm - N/A   Unknown
9:56 AM 35.1 °F - 28.0 °F 76% 29.97 in - Calm Calm - N/A   Unknown
10:56 AM 36.0 °F 33.3 °F 27.0 °F 70% 29.97 in - East 3.5 mph - N/A   Unknown
11:56 AM 37.9 °F 33.5 °F 30.0 °F 73% 29.95 in - NE 5.8 mph - N/A   Unknown
12:56 PM 37.0 °F 30.4 °F 30.0 °F 76% 29.94 in - NE 9.2 mph - N/A   Unknown
1:56 PM 37.0 °F 29.3 °F 30.0 °F 76% 29.93 in - NE 11.5 mph - N/A   Unknown
2:56 PM 37.9 °F 30.9 °F 28.0 °F 68% 29.92 in - NE 10.4 mph - N/A   Unknown
3:56 PM 37.0 °F 31.6 °F 28.9 °F 73% 29.91 in - NNE 6.9 mph - N/A   Unknown
4:56 PM 37.9 °F 32.7 °F 24.1 °F 57% 29.91 in - North 6.9 mph - N/A   Unknown
5:56 PM 37.9 °F 31.5 °F 26.1 °F 62% 29.92 in - North 9.2 mph - N/A   Unknown
6:56 PM 37.0 °F 32.4 °F 24.1 °F 59% 29.92 in - North 5.8 mph - N/A   Unknown
7:56 PM 39.0 °F - 21.0 °F 49% 29.92 in - Calm Calm - N/A   Unknown
8:56 PM 36.0 °F - 19.0 °F 50% 29.93 in - Calm Calm - N/A   Unknown
9:56 PM 37.0 °F 31.6 °F 21.0 °F 52% 29.93 in - South 6.9 mph - N/A   Unknown
10:56 PM 37.0 °F 33.3 °F 21.9 °F 54% 29.93 in - South 4.6 mph - N/A   Unknown
11:56 PM 36.0 °F 30.3 °F 23.0 °F 59% 29.93 in - SSW 6.9 mph - N/A   Unknown